This demonstration page uses our WeatherBlox Daily Observations layout. Learn more.

Left ArrowRight Arrow

Hourly Observations for August 15, 2020

Temp ( °F °C ) Dew Point ( °F °C ) Humidity (%) Winds ( mph kmh ) Pressure ( in mb ) Visibility ( mi km ) Precip ( " mm )
12:52 am 00:52 Clear 76 24.4 69 20.6 79 79 SE 5 7 29.93 1014 10 16 0.00 0.00
1:52 am 01:52 Clear 74 23.3 69 20.6 85 85 SSE 7 11 29.93 1014 10 16 0.00 0.00
2:52 am 02:52 Clear 74 23.3 70 21.1 88 88 SSE 8 13 29.91 1013 10 16 0.00 0.00
3:52 am 03:52 Clear 73 22.8 70 21.1 90 90 SSE 9 15 29.91 1013 10 16 0.00 0.00
4:52 am 04:52 Clear 72 22.2 70 21.1 94 94 SE 5 7 29.92 1013 10 16 0.00 0.00
5:52 am 05:52 Clear 71 21.7 69 20.6 94 94 ESE 3 6 29.92 1013 10 16 0.00 0.00
6:52 am 06:52 Sunny 71 21.7 70 21.1 96 96 Calm 29.95 1014 8 13 0.00 0.00
7:52 am 07:52 Sunny 75 23.9 72 22.2 90 90 S 6 9 29.96 1015 10 16 0.00 0.00
8:52 am 08:52 Sunny 78 25.6 72 22.2 82 82 S 6 9 29.98 1015 10 16 0.00 0.00
9:52 am 09:52 Sunny 84 28.9 73 22.8 70 70 VRB 7 11 30.01 1016 10 16 0.00 0.00
10:52 am 10:52 Sunny 87 30.6 71 21.7 59 59 WNW 6 9 29.96 1015 10 16 0.00 0.00
11:52 am 11:52 Sunny 88 31.1 70 21.1 55 55 SSW 8 13 29.94 1014 10 16 0.00 0.00
12:52 pm 12:52 Sunny 92 33.3 68 20 46 46 WNW 13 20 29.94 1014 10 16 0.00 0.00
1:52 pm 13:52 Mostly Cloudy 90 32.2 73 22.8 58 58 NE 16 26 29.96 1015 10 16 0.00 0.00
2:00 pm 14:00 Mostly Cloudy 89 31.7 73 22.8 59 59 NE 14 22 29.91 1013 10 16 0.00 0.00
2:52 pm 14:52 Sunny 90 32.2 70 21.1 52 52 E 10 17 29.95 1014 10 16 0.00 0.00
3:52 pm 15:52 Sunny 87 30.6 67 19.4 51 51 NE 9 15 29.96 1014 10 16 0.00 0.00
4:52 pm 16:52 Partly Cloudy 86 30 71 21.7 61 61 NNE 10 17 29.95 1014 10 16 0.00 0.00
5:52 pm 17:52 Mostly Cloudy 82 27.8 70 21.1 67 67 N 16 26 29.98 1015 10 16 0.00 0.00
6:52 pm 18:52 Sunny 80 26.7 71 21.7 74 74 NNE 8 13 29.97 1015 10 16 0.00 0.00
7:52 pm 19:52 Sunny 78 25.6 70 21.1 76 76 Calm 29.97 1015 10 16 0.00 0.00
8:52 pm 20:52 Clear 76 24.4 70 21.1 82 82 N 8 13 29.99 1016 10 16 0.00 0.00
9:52 pm 21:52 Clear 74 23.3 70 21.1 88 88 N 8 13 30.01 1016 10 16 0.00 0.00
10:52 pm 22:52 Mostly Clear 73 22.8 68 20 84 84 N 10 17 30.02 1017 10 16 0.00 0.00
11:52 pm 23:52 Clear 72 22.2 67 19.4 84 84 NNE 8 13 30.03 1017 10 16 0.00 0.00

Powered by AerisWeather